Voltar ao catálogo

TANDEM X

AtivoCiênciaSSO
NORAD 36605·PAYLOAD·🇩🇪 Germany

Lançado Jun 21, 2010 de Baikonur Cosmodrome

Loading…

Próximas Passagens (próximas 24 horas)

TLE

AtualizadoSource: CelesTrak SupGP

Época: Sep 14, 2026, 00:01 UTC

1 36605C 10030A   26257.00118056  .00001288  00000+0  61472-4 0  2576
2 36605  97.4469 263.4511 0001980  94.2568   9.6164 15.19147863    17

Acompanhe TANDEM X em tempo real com AllMySat

Download on the App Store